TimeEST,TemperatureF,Dew PointF,Humidity,Sea Level PressureIn,VisibilityMPH,Wind Direction,Wind SpeedMPH,Gust SpeedMPH,PrecipitationIn,Events,Conditions,WindDirDegrees,DateUTC
12:15 AM,55.4,53.6,94,30.08,1.0,Calm,Calm,-,N/A,,Overcast,0,2013-01-16 05:15:00
12:35 AM,55.4,53.6,94,30.07,0.5,Calm,Calm,-,N/A,,Overcast,0,2013-01-16 05:35:00
12:55 AM,55.4,53.6,94,30.07,0.5,SE,3.5,-,N/A,,Overcast,140,2013-01-16 05:55:00
1:15 AM,55.4,55.4,100,30.06,0.2,Calm,Calm,-,N/A,,Overcast,0,2013-01-16 06:15:00
1:35 AM,57.2,55.4,94,30.06,0.2,Calm,Calm,-,N/A,,Overcast,0,2013-01-16 06:35:00
1:55 AM,57.2,55.4,94,30.07,0.2,Calm,Calm,-,N/A,,Overcast,0,2013-01-16 06:55:00
2:15 AM,57.2,55.4,94,30.07,0.2,Calm,Calm,-,N/A,,Overcast,0,2013-01-16 07:15:00
2:35 AM,57.2,55.4,94,30.07,0.2,Calm,Calm,-,N/A,,Overcast,0,2013-01-16 07:35:00
2:55 AM,57.2,55.4,94,30.06,0.2,SE,3.5,-,N/A,,Overcast,130,2013-01-16 07:55:00
3:15 AM,57.2,55.4,94,30.04,0.5,SSE,3.5,-,N/A,,Overcast,150,2013-01-16 08:15:00
3:35 AM,57.2,55.4,94,30.03,0.2,SSE,3.5,-,N/A,,Overcast,160,2013-01-16 08:35:00
3:55 AM,59.0,57.2,94,30.03,0.2,South,5.8,-,N/A,,Overcast,180,2013-01-16 08:55:00
4:15 AM,60.8,57.2,88,30.03,0.2,SSW,3.5,-,N/A,,Overcast,210,2013-01-16 09:15:00
4:35 AM,60.8,57.2,88,30.02,0.5,SSW,3.5,-,N/A,,Overcast,200,2013-01-16 09:35:00
4:55 AM,60.8,59.0,94,30.02,2.0,SSW,4.6,-,N/A,,Overcast,200,2013-01-16 09:55:00
5:15 AM,60.8,60.8,100,30.01,10.0,SSW,8.1,-,N/A,,Mostly Cloudy,200,2013-01-16 10:15:00
5:35 AM,60.8,60.8,100,30.01,10.0,South,9.2,-,N/A,,Scattered Clouds,190,2013-01-16 10:35:00
5:55 AM,60.8,60.8,100,30.01,10.0,SSW,9.2,-,N/A,,Scattered Clouds,200,2013-01-16 10:55:00
6:15 AM,62.6,60.8,94,30.02,10.0,SW,8.1,-,N/A,,Mostly Cloudy,220,2013-01-16 11:15:00
6:35 AM,62.6,60.8,94,30.02,10.0,SW,5.8,-,N/A,,Mostly Cloudy,220,2013-01-16 11:35:00
6:55 AM,60.8,59.0,94,30.03,10.0,SSW,6.9,-,N/A,,Scattered Clouds,200,2013-01-16 11:55:00
7:35 AM,60.8,59.0,94,30.02,10.0,SSW,6.9,-,N/A,,Partly Cloudy,210,2013-01-16 12:35:00
7:55 AM,60.8,60.8,100,30.03,9.0,SSW,8.1,-,N/A,,Partly Cloudy,200,2013-01-16 12:55:00
8:15 AM,62.6,60.8,94,30.03,9.0,SSW,8.1,-,N/A,,Clear,210,2013-01-16 13:15:00
8:35 AM,64.4,62.6,94,30.04,10.0,SW,8.1,-,N/A,,Scattered Clouds,220,2013-01-16 13:35:00
8:55 AM,64.4,62.6,94,30.04,10.0,SSW,10.4,18.4,N/A,,Mostly Cloudy,210,2013-01-16 13:55:00
9:15 AM,66.2,64.4,94,30.05,10.0,SSW,11.5,18.4,N/A,,Mostly Cloudy,210,2013-01-16 14:15:00
9:35 AM,66.2,64.4,94,30.05,10.0,SW,12.7,16.1,N/A,,Overcast,220,2013-01-16 14:35:00
9:55 AM,66.2,64.4,94,30.05,10.0,SSW,9.2,18.4,N/A,,Overcast,210,2013-01-16 14:55:00
10:15 AM,68.0,64.4,88,30.05,10.0,SSW,10.4,17.3,N/A,,Mostly Cloudy,210,2013-01-16 15:15:00
10:35 AM,69.8,62.6,78,30.04,10.0,SW,13.8,20.7,N/A,,Mostly Cloudy,220,2013-01-16 15:35:00
10:55 AM,69.8,64.4,83,30.04,10.0,SW,10.4,-,N/A,,Mostly Cloudy,230,2013-01-16 15:55:00
11:15 AM,71.6,64.4,78,30.02,10.0,SW,13.8,19.6,N/A,,Overcast,220,2013-01-16 16:15:00
11:35 AM,73.4,64.4,73,30.01,10.0,SSW,16.1,20.7,N/A,,Overcast,200,2013-01-16 16:35:00
11:55 AM,75.2,64.4,69,29.99,10.0,SW,16.1,24.2,N/A,,Mostly Cloudy,220,2013-01-16 16:55:00
12:15 PM,75.2,64.4,69,29.99,10.0,SSW,17.3,27.6,N/A,,Overcast,200,2013-01-16 17:15:00
12:35 PM,75.2,62.6,65,29.98,10.0,SSW,18.4,26.5,N/A,,Mostly Cloudy,200,2013-01-16 17:35:00
12:55 PM,77.0,62.6,61,29.98,10.0,SSW,16.1,20.7,N/A,,Mostly Cloudy,200,2013-01-16 17:55:00
1:15 PM,77.0,62.6,61,29.96,10.0,SSW,15.0,20.7,N/A,,Scattered Clouds,210,2013-01-16 18:15:00
1:35 PM,77.0,62.6,61,29.96,10.0,SSW,17.3,-,N/A,,Mostly Cloudy,210,2013-01-16 18:35:00
1:55 PM,77.0,62.6,61,29.96,10.0,SW,11.5,19.6,N/A,,Mostly Cloudy,220,2013-01-16 18:55:00
2:15 PM,78.8,62.6,57,29.96,10.0,SW,13.8,23.0,N/A,,Mostly Cloudy,220,2013-01-16 19:15:00
2:35 PM,77.0,62.6,61,29.96,10.0,SW,8.1,-,N/A,,Mostly Cloudy,230,2013-01-16 19:35:00
3:15 PM,78.8,60.8,54,29.95,10.0,SSW,13.8,-,N/A,,Mostly Cloudy,210,2013-01-16 20:15:00
3:35 PM,78.8,60.8,54,29.96,10.0,SW,12.7,-,N/A,,Mostly Cloudy,220,2013-01-16 20:35:00
3:55 PM,75.2,60.8,61,29.96,10.0,West,6.9,-,N/A,,Mostly Cloudy,260,2013-01-16 20:55:00
4:15 PM,66.2,57.2,73,29.98,10.0,NW,6.9,16.1,N/A,,Mostly Cloudy,320,2013-01-16 21:15:00
4:35 PM,64.4,55.4,73,30.00,10.0,NW,9.2,-,N/A,,Overcast,320,2013-01-16 21:35:00
4:55 PM,62.6,55.4,77,30.01,10.0,NW,8.1,-,N/A,,Mostly Cloudy,320,2013-01-16 21:55:00
5:15 PM,60.8,53.6,77,30.02,10.0,NW,4.6,-,N/A,,Overcast,310,2013-01-16 22:15:00
5:35 PM,60.8,53.6,77,30.02,10.0,NNW,6.9,-,N/A,,Scattered Clouds,330,2013-01-16 22:35:00
5:55 PM,57.2,53.6,88,30.02,10.0,NNE,4.6,-,N/A,,Partly Cloudy,20,2013-01-16 22:55:00
6:15 PM,57.2,53.6,88,30.02,10.0,North,4.6,-,N/A,,Clear,10,2013-01-16 23:15:00
6:55 PM,55.4,51.8,88,30.02,10.0,Calm,Calm,-,N/A,,Mostly Cloudy,0,2013-01-16 23:55:00
7:15 PM,55.4,53.6,94,30.02,10.0,Calm,Calm,-,N/A,,Partly Cloudy,0,2013-01-17 00:15:00
7:35 PM,57.2,53.6,88,30.02,10.0,East,3.5,-,N/A,,Partly Cloudy,90,2013-01-17 00:35:00
7:55 PM,55.4,51.8,88,30.02,10.0,Calm,Calm,-,N/A,,Clear,0,2013-01-17 00:55:00
8:15 PM,55.4,51.8,88,30.03,10.0,Calm,Calm,-,N/A,,Clear,0,2013-01-17 01:15:00
8:35 PM,55.4,53.6,94,30.03,10.0,Calm,Calm,-,N/A,,Clear,0,2013-01-17 01:35:00
8:55 PM,53.6,51.8,94,30.02,10.0,Calm,Calm,-,N/A,,Clear,0,2013-01-17 01:55:00
9:15 PM,53.6,51.8,94,30.02,10.0,Calm,Calm,-,N/A,,Clear,0,2013-01-17 02:15:00
9:35 PM,53.6,51.8,94,30.02,10.0,Calm,Calm,-,N/A,,Clear,0,2013-01-17 02:35:00
9:55 PM,53.6,51.8,94,30.02,10.0,Calm,Calm,-,N/A,,Clear,0,2013-01-17 02:55:00
10:15 PM,53.6,51.8,94,30.01,10.0,Calm,Calm,-,N/A,,Clear,0,2013-01-17 03:15:00
10:35 PM,53.6,51.8,94,30.00,10.0,Calm,Calm,-,N/A,,Clear,0,2013-01-17 03:35:00
10:55 PM,53.6,51.8,94,30.00,9.0,Calm,Calm,-,N/A,,Clear,0,2013-01-17 03:55:00
11:15 PM,53.6,51.8,94,29.99,7.0,Calm,Calm,-,N/A,,Clear,0,2013-01-17 04:15:00
11:35 PM,53.6,51.8,94,29.99,9.0,Calm,Calm,-,N/A,,Clear,0,2013-01-17 04:35:00
11:55 PM,53.6,51.8,94,29.99,9.0,Calm,Calm,-,N/A,,Clear,0,2013-01-17 04:55:00